Regional Weather Roundup
Issued by NWS

Home | Current Version | Previous Version | Text Only | Print | Product List | Glossary On
Versions: 1 2 3 4 5 6 7 8 9 10 11 12 13 14 15 16 17 18 19 20 21 22 23 24 25 26 27 28 29 30 31 32 33 34 35 36 37 38 39 40 41 42 43 44 45 46 47 48 49 50
000
ASUS43 KMKX 251507
RWRWI

WISCONSIN REGIONAL WEATHER ROUNDUP
NATIONAL WEATHER SERVICE MILWAUKEE/SULLIVAN WI
1000 AM CDT MON MAY 25 2015

NOTE: "FAIR" INDICATES FEW OR NO CLOUDS BELOW 12,000 FEET WITH NO
SIGNIFICANT WEATHER AND/OR OBSTRUCTIONS TO VISIBILITY.

WIZ001-002-006>008-014>016-023>028-251600-
NORTHWEST WISCONSIN

CITY           SKY/WX    TMP DP  RH WIND       PRES   REMARKS
SUPERIOR ARPT  DRIZZLE   50  50  99 E16       29.71F
ASHLAND        CLOUDY    52  52 100 NE7       29.69F FOG
HAYWARD        CLOUDY    60  57  89 CALM      29.68F
SIREN          DRIZZLE   58  57  97 CALM      29.69R
CUMBERLAND     DRIZZLE   55  55 100 S5        29.69R
RICE LAKE      DRIZZLE   58  56  94 S5        29.70S
CHETEK         LGT RAIN  58  58  99 SE5       29.68S
LADYSMITH      RAIN      60  60  97 S6        29.70S
EAU CLAIRE     CLOUDY    63  60  90 SW7       29.69R
MENOMONIE      CLOUDY    61  61  99 S8        29.69R FOG
NEW RICHMOND   CLOUDY    60  60 100 S7        29.68S FOG
OSCEOLA        CLOUDY    59  59 100 SE6       29.69F FOG
$$

WIZ003>005-009-010-017-018-251600-
NORTH CENTRAL WISCONSIN

CITY           SKY/WX    TMP DP  RH WIND       PRES   REMARKS
MANITOWISH WTR DRIZZLE   58  58 100 SE5       29.70F
ARBOR VITAE    LGT RAIN  59  58  96 SE8       29.70F
WOODRUFF       LGT RAIN  59  58  96 SE8       29.70F
RHINELANDER    LGT RAIN  59  58  96 SE6       29.71F FOG
EAGLE RIVER    RAIN      57  57 100 SE5       29.72F
LAND O LAKES   LGT RAIN  58  57  99 SE6       29.73F
PHILLIPS       CLOUDY    60  60 100 S7        29.68F
TOMAHAWK       DRIZZLE   60  59  97 CALM      29.71F
MEDFORD        RAIN      62  61  99 S8        29.70S
MERRILL        RAIN      61  61 100 SE5       29.71F
$$

WIZ029-030-035-036-043>047-251600-
CENTRAL WISCONSIN

CITY           SKY/WX    TMP DP  RH WIND       PRES   REMARKS
WAUSAU         LGT RAIN  61  60  97 E3        29.70S FOG
MOSINEE        NOT AVBL
MARSHFIELD     LGT RAIN  64  62  93 SW9       29.71S
STEVENS POINT  DRIZZLE   61  61  99 CALM      29.72R
WAUPACA        CLOUDY    67  67  97 S7        29.69F FOG
WAUTOMA        NOT AVBL
WISC RAPIDS    LGT RAIN  65  62  90 SW6       29.72S
CAMP DOUGLAS   PTSUNNY   66  66 100 SW13G20   29.73R
$$

WIZ011>013-019>022-031-037>040-048>050-251600-
NORTHEAST WISCONSIN

CITY           SKY/WX    TMP DP  RH WIND       PRES   REMARKS
ANTIGO         RAIN      56  56 100 SE5       29.73F
SHAWANO        RAIN      62  60  95 NE3       29.71F
OCONTO         CLOUDY    59  59 100 SE6       29.73F
STURGEON BAY   CLOUDY    59  55  88 S17       29.76F
GREEN BAY      CLOUDY    67  64  90 S16       29.71F FOG
MANITOWOC      NOT AVBL
APPLETON       CLOUDY    64  64 100 S12G18    29.71F FOG
CLINTONVILLE   DRIZZLE   63  63 100 SE7       29.69F
OSHKOSH        CLOUDY    67  64  90 S13       29.71S FOG
$$

WIZ032>034-041-042-053>061-251600-
SOUTHWEST WISCONSIN

CITY           SKY/WX    TMP DP  RH WIND       PRES   REMARKS
LA CROSSE      LGT RAIN  69  62  78 SW10      29.73R
SPARTA         CLOUDY    65  63  91 SW6       29.73S
VIROQUA        CLOUDY    64  64 100 SW13      29.76R
BOSCOBEL       LGT RAIN  66  63  90 SW9       29.78R
PRAIRIE DU CHI CLOUDY    65  62  89 S7        29.78R
PLATTEVILLE    CLOUDY    65  64  96 SW15G21   29.80S
$$

WIZ056-057-062-063-064-067-068-251600-
SOUTH CENTRAL WISCONSIN

CITY           SKY/WX    TMP DP  RH WIND       PRES   REMARKS
REEDSBURG      CLOUDY    66  63  90 SW10      29.74S
BARABOO/DELLS  CLOUDY    67  63  87 SW13      29.75R
LONE ROCK      NOT AVBL
MINERAL POINT  CLOUDY    64  64 100 SW13      29.79S
MADISON        PTSUNNY   69  62  78 SW8G18    29.77R
MIDDLETON      CLOUDY    70  64  79 SW12      29.78R
WATERTOWN      DRIZZLE   66  66 100 SW16G25   29.78R
MONROE         CLOUDY    66  63  88 SW17G23   29.81R
JANESVILLE     PTSUNNY   72  63  73 W12G17    29.80R
$$

WIZ051-052-058>065-066-070>072-251600-
SOUTHEAST WISCONSIN

CITY           SKY/WX    TMP DP  RH WIND       PRES   REMARKS
MILWAUKEE      LGT RAIN  68  64  87 SW22      29.80R FOG
WAUKESHA       PTSUNNY   66  63  88 SW14      29.81R
MILWAUKEE/TIMM NOT AVBL
RACINE         CLOUDY    73  63  70 SW20G31   29.81F
BURLINGTON     LGT RAIN  66  64  92 SW14      29.81R
KENOSHA        HVY RAIN  67  64  90 SW18G39   29.83R FOG
FOND DU LAC    CLOUDY    69  63  81 SW17G28   29.73R
SHEBOYGAN      PTSUNNY   65  62  90 S15       29.76F
WEST BEND      CLOUDY    68  64  88 S12G21    29.77S
JUNEAU         CLOUDY    67  63  85 SW18      29.78R
$$

LSZ147-162-251600-
LAKE SUPERIOR

STATION/POSITION TIME  TEMP    WIND        PRES    WAVE
                       AIR SEA DIR/SP/G            HT/PER
                 (UTC) (F)     (DEG/KT/KT) (MB)    (FT/S)
W MID LAKE BUOY  1350   41 36   40/ 16/ 19 1084.0    2/ 3
DEVILS ISLAND    1400   44      40/ 26/ 29 1068.0F
PORT WING        1400   48      40/ 16/ 19 1064.0
SAXON HARBOR     1440   49      CALM  /  6 1051.0F
$$

LMZ867-665-643>646-251600-
LAKE MICHIGAN

STATION/POSITION TIME  TEMP    WIND        PRES    WAVE
                       AIR SEA DIR/SP/G            HT/PER
                 (UTC) (F)     (DEG/KT/KT) (MB)    (FT/S)
CHAMBERS ISLAND  1400   56     110/  4/  8 1081.0
N MID LAKE BUOY  1350   45 36  160/  6/  8   N/A     1/ 3
NORTHPORT PIER   1400   49     160/  8/ 12 1088.0
SISTER BAY       1417   53     150/ 11/ 15   N/A
KEWAUNEE LAKESHO 1400   47     180/  9/ 10 1077.0F
SHEBOYGAN LAKESH 1400   47     170/ 15/ 17 1087.0
PORT WASHINGTON  1400   51     180/  2/  4   N/A
ATWATER BUOY     1400   52 46  170/ 12/ 14   N/A
MILWAUKEE LAKESH 1400   54     150/ 12/ 14   N/A
S MID LAKE BUOY  1350   47 38  180/ 14/ 14   N/A     2/ 4
KENOSHA   LAKESH 1400   72     190/ 17/ 27   N/A
$$

TC  - TEMPERATURE IN CELSIUS
VSB - VISIBILITY IN STATUTE MILES
WCI - WIND CHILL INDEX
HX  - HEAT INDEX



USA.gov is the U.S. government's official web portal to all federal, state and local government web resources and services.